Time,TemperatureF,DewpointF,PressureIn,WindDirection,WindDirectionDegrees,WindSpeedMPH,WindSpeedGustMPH,Humidity,HourlyPrecipIn,Conditions,Clouds,dailyrainin,SolarRadiationWatts/m^2,SoftwareType,DateUTC
2013-01-06 15:33:00,50.0,44.0,-100.00,NE,46,4.0,10.0,81,0.00,,,0.43,168.000000,,2013-01-06 21:33:00,
2013-01-06 15:43:00,50.0,44.0,-100.00,NE,46,4.0,10.0,81,0.00,,,0.43,168.000000,,2013-01-06 21:43:00,
2013-01-06 15:53:00,50.0,44.0,-100.00,NE,46,4.0,10.0,81,0.00,,,0.43,168.000000,,2013-01-06 21:53:00,
2013-01-06 16:02:00,50.0,44.0,-100.00,NE,46,4.0,10.0,81,0.00,,,0.43,168.000000,,2013-01-06 22:02:00,
2013-01-06 16:33:00,52.0,44.0,-100.00,NE,35,3.0,9.0,75,0.00,,,0.43,205.000000,,2013-01-06 22:33:00,
2013-01-06 16:43:00,52.0,44.0,-100.00,NE,35,3.0,9.0,75,0.00,,,0.43,205.000000,,2013-01-06 22:43:00,
2013-01-06 16:53:00,52.0,44.0,-100.00,NE,35,3.0,9.0,75,0.00,,,0.43,205.000000,,2013-01-06 22:53:00,
2013-01-06 17:02:00,52.0,44.0,-100.00,NE,35,3.0,9.0,75,0.00,,,0.43,205.000000,,2013-01-06 23:02:00,
2013-01-06 17:33:00,47.0,44.0,-100.00,West,272,0.0,7.0,90,0.00,,,0.38,19.000000,,2013-01-06 23:33:00,
2013-01-06 17:43:00,47.0,44.0,-100.00,West,272,0.0,7.0,90,0.00,,,0.38,19.000000,,2013-01-06 23:43:00,
2013-01-06 17:53:00,47.0,44.0,-100.00,West,272,0.0,7.0,90,0.00,,,0.38,19.000000,,2013-01-06 23:53:00,
2013-01-06 18:02:00,47.0,44.0,-100.00,West,272,0.0,7.0,90,0.00,,,0.38,19.000000,,2013-01-07 00:02:00,
2013-01-06 18:33:00,43.0,42.0,-100.00,WSW,247,0.0,2.0,97,0.00,,,0.35,1.000000,,2013-01-07 00:33:00,
2013-01-06 18:43:00,43.0,42.0,-100.00,WSW,247,0.0,2.0,97,0.00,,,0.35,1.000000,,2013-01-07 00:43:00,
2013-01-06 18:53:00,43.0,42.0,-100.00,WSW,247,0.0,2.0,97,0.00,,,0.35,1.000000,,2013-01-07 00:53:00,
2013-01-06 19:02:00,43.0,42.0,-100.00,WSW,247,0.0,2.0,97,0.00,,,0.35,1.000000,,2013-01-07 01:02:00,
2013-01-06 19:32:00,43.0,42.0,-100.00,NE,35,1.0,3.0,98,0.00,,,0.29,0.000000,,2013-01-07 01:32:00,
2013-01-06 19:43:00,43.0,42.0,-100.00,NE,35,1.0,3.0,98,0.00,,,0.29,0.000000,,2013-01-07 01:43:00,
2013-01-06 19:53:00,43.0,42.0,-100.00,NE,35,1.0,3.0,98,0.00,,,0.29,0.000000,,2013-01-07 01:53:00,
2013-01-06 20:02:00,43.0,42.0,-100.00,NE,35,1.0,3.0,98,0.00,,,0.29,0.000000,,2013-01-07 02:02:00,
2013-01-06 20:32:00,44.0,40.0,-100.00,NNE,16,4.0,7.0,87,0.00,,,0.27,0.000000,,2013-01-07 02:32:00,
2013-01-06 20:43:00,44.0,40.0,-100.00,NNE,16,4.0,7.0,87,0.00,,,0.27,0.000000,,2013-01-07 02:43:00,
2013-01-06 20:53:00,44.0,40.0,-100.00,NNE,16,4.0,7.0,87,0.00,,,0.27,0.000000,,2013-01-07 02:53:00,
2013-01-06 21:02:00,44.0,40.0,-100.00,NNE,16,4.0,7.0,87,0.00,,,0.27,0.000000,,2013-01-07 03:02:00,
2013-01-06 21:33:00,43.0,40.0,-100.00,NNE,15,3.0,8.0,88,0.00,,,0.26,0.000000,,2013-01-07 03:33:00,
2013-01-06 21:43:00,43.0,40.0,-100.00,NNE,15,3.0,8.0,88,0.00,,,0.26,0.000000,,2013-01-07 03:43:00,
2013-01-06 21:53:00,43.0,40.0,-100.00,NNE,15,3.0,8.0,88,0.00,,,0.26,0.000000,,2013-01-07 03:53:00,
2013-01-06 22:02:00,43.0,40.0,-100.00,NNE,15,3.0,8.0,88,0.00,,,0.26,0.000000,,2013-01-07 04:02:00,
2013-01-06 22:33:00,41.0,39.0,-100.00,NNE,22,4.0,6.0,92,0.00,,,0.26,0.000000,,2013-01-07 04:33:00,
2013-01-06 22:42:00,41.0,39.0,-100.00,NNE,22,4.0,6.0,92,0.00,,,0.26,0.000000,,2013-01-07 04:42:00,
2013-01-06 22:52:00,41.0,39.0,-100.00,NNE,22,4.0,6.0,92,0.00,,,0.26,0.000000,,2013-01-07 04:52:00,
2013-01-06 23:03:00,41.0,39.0,-100.00,NNE,22,4.0,6.0,92,0.00,,,0.26,0.000000,,2013-01-07 05:03:00,
2013-01-06 23:33:00,39.0,38.0,-100.00,NNE,17,2.0,7.0,96,0.00,,,0.26,0.000000,,2013-01-07 05:33:00,
2013-01-06 23:43:00,39.0,38.0,-100.00,NNE,17,2.0,7.0,96,0.00,,,0.26,0.000000,,2013-01-07 05:43:00,
2013-01-06 23:53:00,39.0,38.0,-100.00,NNE,17,2.0,7.0,96,0.00,,,0.26,0.000000,,2013-01-07 05:53:00,